Location: Buffign�court
(47.8126°N, 6.0176°E)
Time: 20:06:43
(UTC+00:00)

Cosmos 1455 - Pass Details

Date: 16 June 2021
Orbit: 496 x 522 km, 82.5° (Epoch: 31 July)

Event Time Altitude Azimuth Distance (km) Brightness Sun altitude
Rises 21:55:30 0° 1° (N) 2,653 7.0 -15.3°
Reaches altitude 10° 21:57:58 10° 15° (NNE) 1,756 5.6 -15.4°
Maximum altitude 22:01:09 24° 71° (ENE) 1,096 3.8 -15.6°
Enters shadow 22:02:43 19° 107° (ESE) 1,283 3.8 -15.7°
